• In Uzbekistan
  • List of Countries
  • For 7 days
  • Water Temperature
  • Satellite Maps
  • Weather Map
  • Weather Widgets
  • user-avatar
    Login

    Hourly Weather Sur

    Today, 23 January, Wednesday

    Time Temperature Precipitation Wind Pressure Humidity
    00:00 +13°C° 0 mm 3 mps 763 mmHg 59%
    01:00 +14°C° 0 mm 2 mps 763 mmHg 59%
    02:00 +14°C° 0 mm 2 mps 763 mmHg 59%
    03:00 +14°C° 0 mm 2 mps 763 mmHg 58%
    04:00 +13°C° 0 mm 2 mps 762 mmHg 58%
    05:00 +13°C° 0 mm 2 mps 762 mmHg 57%
    06:00 +14°C° 0 mm 2 mps 762 mmHg 57%
    07:00 +14°C° 0 mm 2 mps 762 mmHg 56%
    08:00 +15°C° 0 mm 2 mps 762 mmHg 56%
    09:00 +16°C° 0 mm 1 mps 762 mmHg 51%
    10:00 +18°C° 0 mm 1 mps 762 mmHg 46%
    11:00 +19°C° 0 mm 1 mps 762 mmHg 41%
    12:00 +20°C° 0 mm 1 mps 762 mmHg 41%
    13:00 +20°C° 0 mm 1 mps 761 mmHg 41%
    14:00 +20°C° 0 mm 2 mps 761 mmHg 40%
    15:00 +19°C° 0 mm 2 mps 761 mmHg 46%
    16:00 +18°C° 0 mm 3 mps 760 mmHg 51%
    17:00 +17°C° 0 mm 3 mps 760 mmHg 56%
    18:00 +15°C° 0 mm 4 mps 760 mmHg 54%
    19:00 +15°C° 0 mm 4 mps 760 mmHg 52%
    20:00 +15°C° 0 mm 4 mps 760 mmHg 49%
    21:00 +15°C° 0 mm 5 mps 760 mmHg 48%
    22:00 +15°C° 0 mm 6 mps 760 mmHg 48%
    23:00 +15°C° 0 mm 7 mps 760 mmHg 47%

    Tomorrow, 24 January, Thursday

    Time Temperature Precipitation Wind Pressure Humidity
    00:00 +15°C° 0 mm 8 mps 759 mmHg 47%
    01:00 +15°C° 0 mm 8 mps 759 mmHg 46%
    02:00 +15°C° 0 mm 8 mps 759 mmHg 46%
    03:00 +15°C° 0 mm 8 mps 759 mmHg 46%
    04:00 +13°C° 0 mm 8 mps 758 mmHg 47%
    05:00 +13°C° 0 mm 8 mps 758 mmHg 47%
    06:00 +15°C° 0 mm 8 mps 758 mmHg 48%
    07:00 +15°C° 0 mm 7 mps 758 mmHg 50%
    08:00 +15°C° 0 mm 7 mps 758 mmHg 51%
    09:00 +17°C° 0 mm 7 mps 758 mmHg 48%
    10:00 +18°C° 0 mm 7 mps 758 mmHg 45%
    11:00 +21°C° 0 mm 7 mps 758 mmHg 42%
    12:00 +22°C° 0 mm 7 mps 757 mmHg 41%
    13:00 +22°C° 0 mm 7 mps 756 mmHg 40%
    14:00 +23°C° 0 mm 6 mps 756 mmHg 39%
    15:00 +22°C° 0 mm 5 mps 756 mmHg 42%
    16:00 +21°C° 0 mm 5 mps 756 mmHg 44%
    17:00 +20°C° 0 mm 4 mps 756 mmHg 46%
    18:00 +19°C° 0 mm 4 mps 757 mmHg 53%
    19:00 +18°C° 0 mm 4 mps 758 mmHg 60%
    20:00 +16°C° 0 mm 5 mps 758 mmHg 66%
    21:00 +15°C° 0 mm 4 mps 759 mmHg 70%
    22:00 +16°C° 0 mm 3 mps 759 mmHg 74%
    23:00 +14°C° 0 mm 3 mps 760 mmHg 78%

    Day after tomorrow, 25 January, Friday

    Time Temperature Precipitation Wind Pressure Humidity
    00:00 +15°C° 0 mm 2 mps 760 mmHg 76%
    01:00 +15°C° 0 mm 2 mps 761 mmHg 75%
    02:00 +14°C° 0 mm 1 mps 761 mmHg 74%
    03:00 +14°C° 0 mm 1 mps 761 mmHg 72%
    04:00 +14°C° 0 mm 2 mps 760 mmHg 71%
    05:00 +14°C° 0 mm 2 mps 760 mmHg 69%
    06:00 +14°C° 0 mm 2 mps 760 mmHg 66%
    07:00 +15°C° 0 mm 2 mps 761 mmHg 62%
    08:00 +14°C° 0 mm 3 mps 761 mmHg 58%
    09:00 +17°C° 0 mm 3 mps 761 mmHg 52%
    10:00 +18°C° 0 mm 3 mps 761 mmHg 46%
    11:00 +19°C° 0 mm 3 mps 761 mmHg 39%
    12:00 +20°C° 0 mm 2 mps 760 mmHg 41%
    13:00 +20°C° 0 mm 2 mps 759 mmHg 42%
    14:00 +21°C° 0 mm 2 mps 759 mmHg 43%
    15:00 +20°C° 0 mm 2 mps 758 mmHg 47%
    16:00 +19°C° 0 mm 2 mps 758 mmHg 52%
    17:00 +18°C° 0 mm 2 mps 758 mmHg 56%
    18:00 +18°C° 0 mm 3 mps 758 mmHg 55%
    19:00 +18°C° 0 mm 4 mps 758 mmHg 54%
    20:00 +16°C° 0 mm 5 mps 758 mmHg 53%
    21:00 +17°C° 0 mm 4 mps 758 mmHg 53%
    22:00 +17°C° 0 mm 4 mps 758 mmHg 52%
    23:00 +17°C° 0 mm 4 mps 758 mmHg 52%

    26 January, Saturday

    Time Temperature Precipitation Wind Pressure Humidity
    00:00 +17°C° 0 mm 4 mps 758 mmHg 49%
    01:00 +16°C° 0 mm 5 mps 757 mmHg 47%
    02:00 +16°C° 0 mm 5 mps 757 mmHg 44%
    03:00 +16°C° 0 mm 5 mps 757 mmHg 43%
    04:00 +15°C° 0 mm 5 mps 757 mmHg 42%
    05:00 +15°C° 0 mm 5 mps 756 mmHg 40%
    06:00 +16°C° 0 mm 5 mps 757 mmHg 42%
    07:00 +16°C° 0 mm 5 mps 757 mmHg 43%
    08:00 +17°C° 0 mm 5 mps 757 mmHg 44%
    09:00 +19°C° 0 mm 5 mps 757 mmHg 42%
    10:00 +21°C° 0 mm 5 mps 757 mmHg 39%
    11:00 +22°C° 0 mm 5 mps 757 mmHg 36%
    12:00 +22°C° 0 mm 5 mps 757 mmHg 37%
    13:00 +22°C° 0 mm 5 mps 756 mmHg 39%
    14:00 +22°C° 0 mm 6 mps 756 mmHg 40%
    15:00 +20°C° 0 mm 5 mps 756 mmHg 50%
    16:00 +19°C° 0 mm 4 mps 756 mmHg 60%
    17:00 +17°C° 0 mm 4 mps 756 mmHg 70%
    18:00 +17°C° 0 mm 3 mps 757 mmHg 68%
    19:00 +16°C° 0 mm 2 mps 757 mmHg 67%
    20:00 +16°C° 0 mm 1 mps 758 mmHg 66%
    21:00 +15°C° 0 mm 1 mps 758 mmHg 66%
    22:00 +15°C° 0 mm 1 mps 758 mmHg 67%
    23:00 +15°C° 0 mm 1 mps 758 mmHg 67%

    27 January, Sunday

    Time Temperature Precipitation Wind Pressure Humidity
    00:00 +15°C° 0 mm 1 mps 758 mmHg 68%
    01:00 +14°C° 0 mm 1 mps 758 mmHg 68%
    02:00 +14°C° 0 mm 1 mps 758 mmHg 69%
    03:00 +14°C° 0 mm 2 mps 758 mmHg 68%
    04:00 +14°C° 0 mm 2 mps 758 mmHg 68%
    05:00 +13°C° 0 mm 3 mps 758 mmHg 67%
    06:00 +13°C° 0 mm 3 mps 758 mmHg 65%
    07:00 +14°C° 0 mm 4 mps 759 mmHg 63%
    08:00 +15°C° 0 mm 4 mps 759 mmHg 62%
    09:00 +17°C° 0 mm 4 mps 759 mmHg 57%
    10:00 +18°C° 0 mm 4 mps 759 mmHg 53%
    11:00 +19°C° 0 mm 4 mps 758 mmHg 49%
    12:00 +19°C° 0 mm 5 mps 758 mmHg 49%
    13:00 +19°C° 0 mm 5 mps 758 mmHg 50%
    14:00 +19°C° 0 mm 5 mps 757 mmHg 50%
    15:00 +17°C° 0 mm 5 mps 757 mmHg 56%
    16:00 +16°C° 0 mm 5 mps 757 mmHg 61%
    17:00 +15°C° 0 mm 5 mps 758 mmHg 67%
    18:00 +15°C° 0 mm 5 mps 758 mmHg 64%
    19:00 +15°C° 0 mm 5 mps 759 mmHg 61%
    20:00 +14°C° 0 mm 5 mps 759 mmHg 57%
    21:00 +14°C° 0 mm 5 mps 760 mmHg 57%
    22:00 +13°C° 0 mm 4 mps 760 mmHg 58%
    23:00 +13°C° 0 mm 4 mps 760 mmHg 58%

    28 January, Monday

    Time Temperature Precipitation Wind Pressure Humidity
    00:00 +13°C° 0 mm 4 mps 760 mmHg 57%
    01:00 +13°C° 0 mm 5 mps 760 mmHg 57%
    02:00 +13°C° 0 mm 5 mps 760 mmHg 56%
    03:00 +13°C° 0 mm 5 mps 760 mmHg 57%
    04:00 +13°C° 0 mm 5 mps 761 mmHg 58%
    05:00 +13°C° 0 mm 6 mps 761 mmHg 59%
    06:00 +13°C° 0.2 mm 5 mps 762 mmHg 60%
    07:00 +14°C° 0.2 mm 5 mps 762 mmHg 62%
    08:00 +14°C° 0.2 mm 4 mps 763 mmHg 63%
    09:00 +14°C° 0.1 mm 4 mps 763 mmHg 64%
    10:00 +15°C° 0.1 mm 4 mps 764 mmHg 65%
    11:00 +17°C° 0.1 mm 4 mps 764 mmHg 66%
    12:00 +16°C° 0.3 mm 5 mps 764 mmHg 67%
    13:00 +16°C° 0.3 mm 5 mps 764 mmHg 68%
    14:00 +16°C° 0.3 mm 5 mps 764 mmHg 68%
    15:00 +15°C° 0.1 mm 4 mps 764 mmHg 71%
    16:00 +16°C° 0.1 mm 3 mps 764 mmHg 74%
    17:00 +15°C° 0.1 mm 2 mps 765 mmHg 78%
    18:00 +15°C° 0 mm 2 mps 765 mmHg 78%
    19:00 +14°C° 0 mm 2 mps 766 mmHg 79%
    20:00 +14°C° 0 mm 1 mps 766 mmHg 79%
    21:00 +14°C° 0 mm 1 mps 766 mmHg 78%
    22:00 +14°C° 0 mm 2 mps 767 mmHg 77%
    23:00 +13°C° 0 mm 2 mps 767 mmHg 75%
    Show more